Regional Weather Roundup
Issued by NWS

Home | Current Version | Previous Version | Text Only | Print | Product List | Glossary Off
Versions: 1 2 3 4 5 6 7 8 9 10 11 12 13 14 15 16 17 18 19 20 21 22 23 24 25 26 27 28 29 30 31 32 33 34 35 36 37 38 39 40 41 42 43 44 45 46 47 48 49 50

000
ASUS43 KLOT 272301
RWRIL

ILLINOIS REGIONAL WEATHER ROUNDUP
NATIONAL WEATHER SERVICE CHICAGO/ROMEOVILLE IL
600 PM CDT THU AUG 27 2015

NOTE: "FAIR" INDICATES FEW OR NO CLOUDS BELOW 12,000 FEET WITH NO
SIGNIFICANT WEATHER AND/OR OBSTRUCTIONS TO VISIBILITY.

* THESE STATIONS ARE NOT UNDER NWS QUALITY CONTROL. THEY ALSO MAY NOT
  REPORT WEATHER SUCH AS PRECIPITATION OR FOG.

ILZ001-002-007-009-015-016-024-280000-
NORTHWEST ILLINOIS

CITY           SKY/WX    TMP DP  RH WIND       PRES   REMARKS
MOLINE         SUNNY     73  58  59 S6        30.09R
STERLING*      PTSUNNY  N/A N/A N/A S3        30.09S
$$

ILZ003-004-008-010-011-017-018-280000-
NORTH CENTRAL ILLINOIS

CITY           SKY/WX    TMP DP  RH WIND       PRES   REMARKS
ROCKFORD       CLOUDY    71  56  58 SE8       30.14R
FREEPORT*      PTSUNNY   69  58  67 S3        30.14R
$$

ILZ005-006-012>014-019>023-280000-
NORTHEAST ILLINOIS

CITY           SKY/WX    TMP DP  RH WIND       PRES   REMARKS
CHICAGO-OHARE  PTSUNNY   70  52  52 E10       30.13S
CHICAGO-MIDWAY PTSUNNY   71  55  56 E9        30.13S
AURORA         CLOUDY    71  58  63 SW7       30.14S
LANSING*       MOSUNNY   69  55  60 SE5       30.14S
WAUKEGAN       MOSUNNY   66  57  72 SE10      30.13S
DUPAGE AIRPORT MOSUNNY   73  55  53 S5        30.12S
WHEELING       SUNNY     69  51  52 E8        30.14F
ROMEOVILLE*    PTSUNNY   70  55  59 S6        30.13F
NORTHERLY ISL    N/A     67  55  65 E6          N/A
$$

LMZ740>746-280000-
SOUTHERN LAKE MICHIGAN

STATION/POSITION SKY/WX   TEMP    WIND        PRES    VSBY  WAVE
                          AIR SEA DIR/SP/G                  HT/PER
                          (F)     (DEG/KT/KT) (MB)    (MI)  (FT/S)
SOUTHERN BUOY              65 69  200/  6/  6 1020.9F         1
WILMETTE HARBOR            65 57  270/  8/ 10   N/A           1/ 3
HARRISON CRIB              67     100/  8/  9   N/A
BURNHAM HARBOR             68      80/  5/  8   N/A
CALUMET HARBOR             67      50/  6/  9   N/A
BURNS HARBOR               69      50/  7/  8 1021.0F
MICHIGAN CITY              69     320/  4/  5   N/A
MICHIGAN CITY 6N           67 72   40/  2/  4   N/A           0
ST. JOSEPH                 67 71  340/  4/  6   N/A           1
$$

ILZ025>027-034>036-040-047-049-050-058-095>099-280000-
WEST-CENTRAL ILLINOIS

CITY           SKY/WX    TMP DP  RH WIND       PRES   REMARKS
QUINCY         PTSUNNY   73  57  57 SE10      30.07S
MACOMB*        PTSUNNY   73  58  61 SE7       30.10S
$$

ILZ028>032-037-038-041>044-048-051>054-059>061-280000-
CENTRAL ILLINOIS

CITY           SKY/WX    TMP DP  RH WIND       PRES   REMARKS
DECATUR        PTSUNNY   77  60  55 CALM      30.11F
PEORIA         MOSUNNY   76  57  51 SE3       30.11F
SPRINGFIELD    PTSUNNY   77  58  51 E3        30.10F
TAYLORVILLE    NOT AVBL
$$

ILZ033-039-045-046-055>057-062-063-280000-
EAST-CENTRAL ILLINOIS

CITY           SKY/WX    TMP DP  RH WIND       PRES   REMARKS
CHAMPAIGN      PTSUNNY   77  61  57 N3        30.12F
MATTOON        PTSUNNY   76  57  51 S6        30.11F
$$

ILZ079-100>102-280000-
SOUTHWEST ILLINOIS

CITY           SKY/WX    TMP DP  RH WIND       PRES   REMARKS
CAHOKIA*       PTSUNNY   78  56  46 E6        30.09F
$$

ILZ064>066-069>071-074>076-080>082-084>086-088>090-092>094-280000-
SOUTH-CENTRAL ILLINOIS

CITY           SKY/WX    TMP DP  RH WIND       PRES   REMARKS
CARBONDALE     SUNNY     77  57  50 NW3       30.10F
MARION         PTSUNNY   77  61  57 N6        30.11F
MT. VERNON     MOSUNNY   79  57  47 CALM      30.12F HX  80
SALEM*           N/A     77  58  50 CALM      30.11F
$$

ILZ067-068-072-073-078-083-087-091-280000-
SOUTHEAST ILLINOIS

CITY           SKY/WX    TMP DP  RH WIND       PRES   REMARKS
LAWRENCEVILLE  MOSUNNY   79  56  45 CALM      30.11R HX  80
FLORA*         MOSUNNY   77  58  51 NW5       30.11F
ROBINSON*      MOSUNNY   76  60  59 CALM      30.12S
$$

ABBREVIATIONS USED IN REMARKS
   TC - TEMPERATURE IN CELSIUS
  WCI - WIND CHILL INDEX
   HX - HEAT INDEX
  VSB - VISIBILITY
$$



USA.gov is the U.S. government's official web portal to all federal, state and local government web resources and services.